This is the latest recevied weather packets stored in our database for station/object KI5QCM-13. If no packets are shown the sender has not sent any weather packets the latest 10 day(s).
| Time | Temp. | Humidity | Pressure | Rain* | Wind** | Luminosity | Snow |
|---|---|---|---|---|---|---|---|
| 1788369637 | 36.11° C | 49% | 1015.7 hPa | 0 mm | - | 701 W/m² | - |
| 1788369061 | 35.56° C | 50% | 1015.7 hPa | 0 mm | - | 708 W/m² | - |
| 1788368421 | 35.56° C | 50% | 1015.8 hPa | 0 mm | - | 754 W/m² | - |
| 1788367835 | 35.56° C | 51% | 1015.9 hPa | 0 mm | - | 717 W/m² | - |
| 1788367269 | 35° C | 52% | 1016.1 hPa | 0 mm | - | 704 W/m² | - |
| 1788366629 | 35° C | 52% | 1016.1 hPa | 0 mm | - | 699 W/m² | - |
| 1788366053 | 34.44° C | 54% | 1016.1 hPa | 0 mm | - | 714 W/m² | - |
| 1788365434 | 34.44° C | 54% | 1016.1 hPa | 0 mm | - | 678 W/m² | - |
| 1788364870 | 33.89° C | 56% | 1016.2 hPa | 0 mm | - | 646 W/m² | - |
| 1788364229 | 33.33° C | 57% | 1016.3 hPa | 0 mm | - | 589 W/m² | - |
| 1788363653 | 32.78° C | 58% | 1016.1 hPa | 0 mm | - | 571 W/m² | - |
| 1788363077 | 32.78° C | 59% | 1016.2 hPa | 0 mm | - | 540 W/m² | - |
| 1788362433 | 32.22° C | 60% | 1016.2 hPa | 0 mm | - | 533 W/m² | - |
| 1788361861 | 31.67° C | 61% | 1016.2 hPa | 0 mm | - | 506 W/m² | - |
| 1788361270 | 31.67° C | 62% | 1016.2 hPa | 0 mm | - | 431 W/m² | - |
| 1788360761 | 30.56° C | 64% | 1016.2 hPa | 0 mm | - | 380 W/m² | - |
| 1788360069 | 30.56° C | 65% | 1016.3 hPa | 0 mm | - | 324 W/m² | - |
| 1788359429 | 29.44° C | 67% | 1016.3 hPa | 0 mm | - | 251 W/m² | - |
| 1788358853 | 29.44° C | 67% | 1016.3 hPa | 0 mm | - | 275 W/m² | - |
| 1788358277 | 28.89° C | 68% | 1016.2 hPa | 0 mm | - | 228 W/m² | - |
| 1788357633 | 28.89° C | 69% | 1016.2 hPa | 0 mm | - | 63 W/m² | - |
| 1788357045 | 28.33° C | 70% | 1016.4 hPa | 0 mm | - | 58 W/m² | - |
| 1788356469 | 27.78° C | 71% | 1016.2 hPa | 0 mm | - | 71 W/m² | - |
| 1788355829 | 27.22° C | 73% | 1016.3 hPa | 0 mm | - | 90 W/m² | - |
| 1788355253 | 26.67° C | 75% | 1016.4 hPa | 0 mm | - | 51 W/m² | - |
* Rain latest hour (hover to see other rain measurements)
** Current wind speed in m/s (hover to see current wind gust speed)